Monticello, AR

5:22 AM CDT on June 27, 2017 (GMT -0500)
Monticello Municipal-Ellis

Weather History for KLLQ - October, 2012

Change the Weather History Date:

Tuesday, October 23, 2012

  Actual Average Record
Temperature  
Mean Temperature 70 °F -  
Max Temperature 80 °F 73 °F 88 °F (1953)
Min Temperature 59 °F 48 °F 30 °F (1990)
Cooling Degree Days 4    
Growing Degree Days 20 (Base 50)    
Moisture  
Dew Point 60 °F    
Average Humidity 76    
Maximum Humidity 90    
Minimum Humidity 48    
Precipitation  
Precipitation 0.00 in - - ()
Sea Level Pressure  
Sea Level Pressure 30.03 in    
Wind  
Wind Speed 5 mph (South)    
Max Wind Speed 9 mph    
Max Gust Speed -    
Visibility 10 miles    
Events      
Averages and records for this station are not official NWS values.
T = Trace of Precipitation, MM = Missing Value Source: NWS Daily Summary

Daily Weather History Graph

Daily Weather History Graph

Search for Another Location

Airport or City:

Trip Planner

Search our weather history database for the weather conditions in past years. The results will help you decide how hot, cold, wet, or windy it might be!

Date:

Astronomy

Oct. 23, 2012 Rise Set
Actual Time 7:18 AM CDT 6:23 PM CDT
Civil Twilight 6:53 AM CDT 6:48 PM CDT
Nautical Twilight 6:24 AM CDT 7:17 PM CDT
Astronomical Twilight 5:55 AM CDT 7:46 PM CDT
Moon 2:52 PM CDT (10/23) 1:27 AM CDT (10/23)
Length of Visible Light 11h 55m
Length of Day
11h 04m
Waxing Gibbous, 67% of the Moon is Illuminated
Oct 23
Waxing Gibbous
Oct 29
Full
Nov 6
Last Quarter
Nov 13
New
Nov 20
First Quarter

Hourly Weather History & Observations

Time (CDT) Temp. Heat Index Dew Point Humidity Pressure Visibility Wind Dir Wind Speed Gust Speed Precip Events Conditions
12:53 AM 64.0 °F - 54.0 °F 70% 30.01 in 10.0 mi South 4.6 mph - N/A   Clear
1:53 AM 64.0 °F - 55.0 °F 73% 30.01 in 10.0 mi South 5.8 mph - N/A   Clear
2:53 AM 60.1 °F - 54.0 °F 80% 30.02 in 10.0 mi Calm Calm - N/A   Clear
3:53 AM 59.0 °F - 55.0 °F 87% 30.03 in 10.0 mi Calm Calm - N/A   Clear
4:53 AM 64.9 °F - 59.0 °F 81% 30.04 in 10.0 mi SSW 6.9 mph - N/A   Clear
5:53 AM 63.0 °F - 59.0 °F 87% 30.04 in 10.0 mi South 5.8 mph - N/A   Clear
6:53 AM 61.0 °F - 57.9 °F 90% 30.06 in 10.0 mi South 3.5 mph - N/A   Clear
7:53 AM 61.0 °F - 57.9 °F 90% 30.07 in 10.0 mi South 3.5 mph - N/A   Clear
8:53 AM 64.9 °F - 61.0 °F 87% 30.08 in 10.0 mi SSE 5.8 mph - N/A   Partly Cloudy
9:53 AM 70.0 °F - 64.0 °F 81% 30.08 in 10.0 mi South 8.1 mph - N/A   Partly Cloudy
10:53 AM 73.0 °F - 64.0 °F 73% 30.08 in 10.0 mi SSW 9.2 mph - N/A   Partly Cloudy
11:35 AM 73.4 °F - 62.6 °F 69% 30.08 in 10.0 mi SSW 9.2 mph - N/A   Mostly Cloudy
12:53 PM 77.0 °F - 61.0 °F 58% 30.05 in 10.0 mi South 8.1 mph - 0.00 in   Partly Cloudy
1:53 PM 79.0 °F - 60.1 °F 52% 30.02 in 10.0 mi South 5.8 mph - N/A   Clear
2:53 PM 79.0 °F - 57.9 °F 48% 30.00 in 10.0 mi Variable 6.9 mph - N/A   Clear
3:53 PM 80.1 °F 80.9 °F 60.1 °F 50% 29.99 in 10.0 mi SSE 8.1 mph - N/A   Clear
4:53 PM 78.1 °F - 61.0 °F 56% 29.99 in 10.0 mi SSE 9.2 mph - N/A   Clear
5:53 PM 73.9 °F - 62.1 °F 66% 29.99 in 10.0 mi SSE 5.8 mph - N/A   Clear
6:53 PM 70.0 °F - 62.1 °F 76% 30.00 in 10.0 mi SSE 3.5 mph - N/A   Clear
7:53 PM 66.0 °F - 62.1 °F 87% 30.01 in 6.0 mi Calm Calm - N/A   Clear
8:53 PM 64.9 °F - 62.1 °F 90% 30.01 in 10.0 mi Calm Calm - N/A   Clear
9:53 PM 66.0 °F - 62.1 °F 87% 30.01 in 10.0 mi Calm Calm - N/A   Clear
10:53 PM 64.9 °F - 62.1 °F 90% 30.01 in 10.0 mi SSE 4.6 mph - N/A   Clear
11:53 PM 64.9 °F - 61.0 °F 87% 30.01 in 10.0 mi South 3.5 mph - N/A   Clear